Temp
-14 -14 -15 -15 -15 -14 -15 -15 -15 -15 -15 -15 -15 -15 -15 -15 -15 -16 -17 -18 -18 -18 -19 -19 -20 -19 -19
-15 -15 -15 -15 -15 -15 -15 -15 -15 -15 -15 -15 -15 -15 -15 -16 -16 -17 -18 -18 -19 -19 -19 -20 -20 -20 -20
-15 -15 -15 -15 -15 -15 -15 -15 -15 -15 -15 -15 -15 -15 -16 -17 -18 -19 -18 -19 -19 -20 -20 -20 -20 -21 -20
-15 -15 -15 -15 -15 -15 -16 -15 -15 -15 -15 -15 -15 -16 -17 -18 -18 -18 -19 -19 -20 -20 -20 -20 -21 -21 -21
-15 -15 -15 -16 -16 -16 -16 -15 -15 -15 -15 -15 -16 -17 -18 -18 -18 -19 -19 -20 -20 -20 -20 -21 -21 -21 -22
-15 -15 -16 -16 -16 -16 -16 -16 -15 -15 -16 -17 -18 -18 -18 -18 -19 -20 -20 -20 -20 -21 -21 -21 -21 -22 -22
-15 -16 -16 -16 -16 -16 -16 -16 -16 -16 -17 -17 -18 -18 -19 -20 -20 -20 -20 -21 -21 -21 -21 -22 -22 -23 -23
-16 -16 -16 -16 -16 -16 -16 -16 -16 -18 -18 -18 -18 -19 -20 -20 -20 -21 -21 -21 -21 -21 -22 -22 -23 -23 -24
-16 -16 -16 -16 -16 -16 -16 -17 -18 -18 -18 -19 -19 -20 -20 -20 -21 -21 -21 -21 -21 -22 -23 -23 -23 -24 -25
-16 -16 -16 -16 -16 -17 -17 -18 -19 -18 -19 -19 -20 -20 -21 -21 -21 -21 -21 -21 -22 -23 -23 -24 -24 -24 -25
-16 -16 -16 -16 -17 -17 -18 -19 -19 -19 -19 -20 -21 -21 -21 -21 -21 -21 -21 -22 -23 -24 -24 -25 -25 -25 -25
-16 -16 -16 -17 -18 -19 -18 -19 -19 -20 -20 -20 -21 -21 -21 -21 -21 -21 -22 -23 -23 -24 -25 -25 -25 -25 -26
-16 -17 -17 -18 -18 -18 -18 -19 -20 -20 -20 -21 -21 -21 -21 -21 -21 -22 -23 -24 -24 -25 -25 -25 -25 -25 -26
-17 -17 -17 -18 -18 -19 -19 -20 -20 -20 -21 -21 -21 -21 -21 -22 -22 -23 -23 -24 -24 -25 -25 -26 -26 -26 -27
-17 -18 -18 -19 -19 -19 -20 -20 -20 -21 -21 -21 -21 -21 -22 -23 -23 -23 -24 -24 -25 -25 -25 -26 -27 -27 -29
-18 -19 -19 -20 -19 -20 -20 -20 -21 -21 -21 -21 -21 -22 -23 -23 -23 -23 -24 -25 -25 -25 -25 -26 -27 -28 -30
-19 -19 -19 -20 -20 -20 -20 -20 -21 -21 -21 -21 -22 -23 -23 -24 -24 -24 -25 -25 -25 -25 -26 -26 -28 -29 -30
Height
5822 5820 5819 5817 5815 5812 5808 5805 5802 5798 5794 5789 5782 5775 5768 5760 5752 5743 5735 5728 5719 5709 5701 5692 5684 5674 5666
5814 5814 5812 5810 5808 5804 5801 5798 5795 5790 5785 5779 5773 5766 5758 5749 5741 5733 5726 5718 5709 5700 5689 5683 5672 5661 5651
5809 5807 5805 5802 5800 5797 5794 5791 5787 5782 5776 5771 5764 5756 5748 5740 5731 5723 5716 5707 5700 5690 5680 5669 5658 5647 5638
5802 5800 5798 5794 5793 5790 5787 5783 5778 5773 5767 5762 5754 5746 5738 5729 5721 5714 5705 5697 5688 5679 5667 5656 5646 5636 5626
5794 5793 5790 5788 5786 5783 5779 5775 5770 5764 5758 5751 5743 5735 5727 5719 5712 5704 5695 5687 5677 5667 5655 5644 5634 5623 5614
5786 5784 5782 5779 5777 5774 5770 5765 5761 5755 5749 5742 5733 5724 5717 5710 5702 5693 5685 5676 5666 5655 5645 5633 5623 5612 5603
5778 5776 5775 5772 5769 5765 5761 5756 5751 5744 5737 5729 5723 5716 5708 5699 5692 5683 5674 5665 5654 5643 5633 5622 5613 5601 5590
5770 5768 5766 5763 5759 5756 5752 5747 5740 5734 5726 5721 5714 5706 5698 5690 5682 5673 5663 5652 5641 5630 5621 5612 5602 5589 5577
5762 5761 5759 5755 5751 5748 5743 5736 5730 5723 5717 5711 5703 5696 5689 5681 5671 5662 5652 5641 5629 5619 5610 5600 5592 5579 5564
5753 5752 5749 5745 5742 5737 5731 5725 5719 5714 5708 5701 5694 5687 5679 5670 5661 5651 5641 5630 5619 5609 5598 5588 5578 5569 5554
5744 5741 5739 5736 5732 5727 5721 5716 5711 5705 5699 5691 5685 5678 5669 5659 5650 5640 5631 5621 5608 5597 5585 5575 5564 5553 5544
5734 5733 5730 5726 5721 5717 5712 5708 5702 5696 5688 5682 5675 5668 5659 5649 5640 5629 5618 5611 5601 5589 5578 5566 5553 5540 5525
5726 5723 5719 5715 5711 5708 5704 5698 5692 5687 5680 5672 5665 5657 5650 5641 5630 5621 5612 5598 5589 5582 5569 5554 5544 5533 5521
5715 5712 5710 5706 5703 5699 5694 5689 5683 5677 5671 5663 5656 5647 5639 5630 5621 5612 5603 5595 5584 5573 5562 5542 5527 5517 5507
5705 5704 5701 5697 5693 5688 5684 5679 5674 5667 5661 5654 5646 5636 5628 5619 5612 5603 5594 5582 5572 5562 5551 5535 5515 5506 5496
5697 5694 5691 5687 5682 5679 5674 5669 5664 5657 5651 5644 5635 5627 5617 5609 5601 5592 5582 5572 5561 5550 5537 5525 5509 5495 5486
5686 5684 5680 5676 5673 5669 5665 5659 5653 5648 5641 5634 5624 5616 5606 5596 5586 5580 5573 5561 5552 5541 5528 5513 5499 5489 5481
Wind_Speed
33 32 33 37 38 39 35 35 38 39 43 48 50 54 55 58 61 63 61 59 59 59 61 61 64 67 67
32 32 35 35 42 37 35 38 40 42 46 50 54 55 58 60 63 62 58 58 56 60 61 65 68 68 66
34 36 36 40 38 35 35 38 42 44 49 53 55 59 61 62 60 56 58 58 59 60 65 69 68 66 68
37 43 40 33 33 34 36 41 43 47 50 53 58 61 60 59 59 60 59 59 61 65 69 69 68 68 68
40 41 34 32 34 37 40 44 47 49 52 57 60 59 58 57 61 59 60 63 66 68 68 67 67 64 61
39 33 31 33 36 39 43 46 48 51 56 59 57 57 61 61 58 58 61 64 67 66 67 65 62 61 66
34 31 32 35 38 42 44 46 52 56 57 58 60 60 58 57 58 62 64 66 65 67 66 61 61 65 68
33 33 35 38 41 43 45 52 55 54 56 57 59 57 56 58 61 63 65 64 68 66 61 60 63 67 71
32 34 38 40 42 44 50 54 53 53 56 56 57 56 59 61 62 62 62 66 64 59 60 63 66 69 73
34 35 38 39 41 49 52 51 51 53 54 57 57 56 61 61 62 61 64 65 60 60 63 66 69 71 74
35 37 38 40 47 51 50 51 54 54 58 55 56 59 60 62 63 63 64 60 60 61 65 68 72 74 74
39 37 41 48 49 48 49 51 53 55 54 53 56 58 60 62 62 62 58 58 59 62 65 70 74 76 75
36 43 50 52 50 50 51 52 52 54 53 53 54 58 61 60 60 55 55 59 61 64 68 73 73 74 70
43 47 52 53 51 49 51 54 53 52 52 53 56 60 61 59 54 55 58 60 63 67 68 74 76 75 67
48 51 51 49 47 50 54 54 50 51 52 54 59 59 58 53 55 58 61 64 66 67 69 72 73 70 57
46 47 45 46 46 50 50 48 51 51 53 56 58 55 53 55 58 61 64 65 67 69 71 72 68 60 49
43 48 49 45 46 45 47 49 50 51 53 56 52 51 55 59 63 63 63 66 67 68 70 70 63 50 43
Wind_Direction
281 283 287 293 297 302 304 303 305 310 313 313 314 315 314 314 313 312 313 316 318 320 321 322 322 320 317
277 282 294 294 300 297 297 301 306 309 311 311 314 315 313 311 311 313 315 318 318 320 323 322 320 320 320
279 287 288 293 293 293 297 301 306 309 309 312 314 312 310 312 313 314 318 321 319 319 321 321 321 320 320
283 288 289 288 290 294 298 301 304 308 310 313 312 309 312 313 312 316 317 318 321 320 321 322 321 319 319
283 285 283 287 290 293 300 302 306 308 308 309 311 313 313 312 314 316 318 320 320 320 320 321 320 320 320
283 279 279 285 290 296 298 304 305 306 306 310 311 310 314 317 315 316 320 319 319 321 322 321 321 320 321
271 276 282 288 293 296 300 303 304 305 310 309 312 316 317 315 315 317 318 319 320 321 321 321 321 321 321
266 273 284 289 293 298 300 303 305 310 308 313 316 316 316 315 314 316 319 320 322 322 321 322 322 322 323
268 280 284 292 296 296 301 304 308 309 312 316 314 314 315 315 316 318 320 322 322 320 321 323 323 324 324
273 281 288 291 295 301 302 305 310 313 314 316 314 313 314 316 318 319 321 322 320 321 323 322 323 325 323
278 280 287 294 299 303 304 309 315 314 315 313 312 312 313 317 319 319 320 320 322 323 323 323 323 323 323
282 284 295 293 301 305 308 311 313 311 311 311 310 312 315 317 319 319 320 321 323 322 322 322 321 322 325
285 283 283 292 300 301 307 309 310 310 309 308 311 314 316 317 317 319 319 321 322 323 322 320 321 323 326
282 287 289 292 294 300 307 307 308 308 309 310 312 316 316 315 318 318 319 321 321 323 323 321 322 325 325
282 288 289 291 297 304 304 304 305 307 310 309 313 314 315 317 319 320 320 321 323 323 324 322 323 325 321
281 289 290 300 301 300 303 303 305 309 308 312 314 315 317 318 318 320 321 322 323 323 323 324 324 321 316
283 286 293 295 298 302 302 305 307 306 309 313 315 318 320 319 319 320 321 322 323 323 324 325 324 318 313